FW9081 Weather Reports


time (UTC)temp
F
wind
direction
speed
knots
gust
knots
rain 1hr
in
rain 24hr
in
rain mn
in
humidity
%
barometer
mb
20260906023926 68 183 7.0 7.0 0.00 0.00 0.00 59 1022.0
20260906023424 68 183 6.1 7.0 0.00 0.00 0.00 59 1022.2
20260906022926 69 183 6.1 7.0 0.00 0.00 0.00 59 1021.9
20260906022424 69 184 6.1 7.0 0.00 0.00 0.00 59 1021.9
20260906021927 68 184 7.0 7.0 0.00 0.00 0.00 59 1022.0
20260906021425 68 182 6.1 7.0 0.00 0.00 0.00 59 1021.9
20260906020926 68 183 6.1 7.0 0.00 0.00 0.00 59 1021.8
20260906020426 68 183 7.0 7.0 0.00 0.00 0.00 59 1021.7
20260906015918 68 182 6.1 7.0 0.00 0.00 0.00 59 1021.7
20260906015416 68 183 6.1 7.0 0.00 0.00 0.00 59 1021.7
20260906014918 68 182 7.0 7.0 0.00 0.00 0.00 60 1021.6
20260906014419 68 183 6.1 7.0 0.00 0.00 0.00 60 1021.8
20260906013918 68 184 7.0 7.0 0.00 0.00 0.00 60 1021.7
20260906013417 68 183 6.1 7.0 0.00 0.00 0.00 59 1021.8
20260906012918 68 185 7.0 7.0 0.00 0.00 0.00 59 1021.7
20260906012417 68 182 6.1 7.0 0.00 0.00 0.00 59 1021.8
20260906011918 68 181 6.1 7.0 0.00 0.00 0.00 59 1021.7
20260906011417 68 186 6.1 7.8 0.00 0.00 0.00 59 1021.7
20260906010918 68 187 6.1 7.8 0.00 0.00 0.00 59 1021.6
20260906010416 68 183 6.1 7.8 0.00 0.00 0.00 60 1021.7
20260906005918 68 183 6.1 7.0 0.00 0.00 0.00 60 1021.6
20260906005417 69 183 7.0 7.0 0.00 0.00 0.00 59 1021.5
20260906004917 69 182 6.1 7.0 0.00 0.00 0.00 59 1021.6
20260906004416 69 182 5.2 7.0 0.00 0.00 0.00 59 1021.4
20260906003906 69 182 6.1 7.0 0.00 0.00 0.00 59 1021.4
20260906003411 69 182 6.1 7.0 0.00 0.00 0.00 59 1021.7
20260906002907 69 182 6.1 7.0 0.00 0.00 0.00 59 1021.6
20260906002410 69 184 7.0 7.0 0.00 0.00 0.00 59 1021.7
20260906001906 69 182 7.0 7.0 0.00 0.00 0.00 59 1021.6
20260906001410 69 182 6.1 7.0 0.00 0.00 0.00 59 1021.6
20260906000907 69 183 6.1 7.0 0.00 0.00 0.00 59 1021.6
20260906000407 69 183 6.1 7.0 0.00 0.00 0.00 59 1021.7
20260905235904 69 183 6.1 7.0 0.00 0.00 0.00 59 1021.6
20260905235404 69 183 7.0 7.0 0.00 0.00 0.00 59 1021.8
20260905234907 70 182 7.0 7.0 0.00 0.00 0.00 59 1021.9
20260905234405 70 184 6.1 7.0 0.00 0.00 0.00 59 1021.7
20260905233903 70 184 6.1 7.0 0.00 0.00 0.00 58 1021.5
20260905233405 70 183 5.2 6.1 0.00 0.00 0.00 58 1021.6
20260905232909 71 184 6.1 7.0 0.00 0.00 0.00 57 1021.6
20260905232405 71 181 6.1 7.0 0.00 0.00 0.00 56 1021.5
20260905231907 71 183 6.1 6.1 0.00 0.00 0.00 54 1021.5
20260905231405 71 184 6.1 6.1 0.00 0.00 0.00 53 1021.4
20260905230903 71 183 6.1 6.1 0.00 0.00 0.00 53 1021.4
20260905230403 71 182 5.2 7.0 0.00 0.00 0.00 53 1021.4
20260905225903 71 182 6.1 7.0 0.00 0.00 0.00 53 1021.2
20260905225405 71 183 6.1 7.0 0.00 0.00 0.00 53 1021.1
20260905224903 71 182 6.1 7.0 0.00 0.00 0.00 53 1021.2
20260905224406 71 182 6.1 7.0 0.00 0.00 0.00 53 1021.0
20260905223903 71 182 6.1 7.0 0.00 0.00 0.00 52 1021.2
20260905223405 71 184 6.1 7.0 0.00 0.00 0.00 52 1021.0
20260905222904 71 183 6.1 7.8 0.00 0.00 0.00 52 1021.0
20260905222404 72 182 6.1 7.8 0.00 0.00 0.00 52 1021.0
20260905221902 72 182 6.1 7.0 0.00 0.00 0.00 52 1021.1
20260905221405 72 182 6.1 7.0 0.00 0.00 0.00 51 1020.9
20260905220904 72 185 6.1 7.0 0.00 0.00 0.00 51 1021.0
20260905220407 72 181 6.1 7.0 0.00 0.00 0.00 50 1020.8
20260905215903 73 181 6.1 7.0 0.00 0.00 0.00 50 1020.7
20260905215403 73 186 6.1 7.0 0.00 0.00 0.00 49 1020.9
20260905214904 73 184 7.0 7.0 0.00 0.00 0.00 48 1020.9
20260905214403 73 180 6.1 7.0 0.00 0.00 0.00 48 1020.6
20260905213903 74 181 6.1 7.0 0.00 0.00 0.00 47 1020.5
20260905213405 74 180 6.1 6.1 0.00 0.00 0.00 47 1020.4
20260905212903 74 183 6.1 7.0 0.00 0.00 0.00 47 1020.4
20260905212405 74 183 6.1 7.0 0.00 0.00 0.00 47 1020.0
20260905211903 74 183 6.1 7.0 0.00 0.00 0.00 46 1020.1
20260905211404 74 181 6.1 7.0 0.00 0.00 0.00 46 1020.4
20260905210905 74 181 6.1 7.0 0.00 0.00 0.00 45 1020.3
20260905210403 75 182 6.1 6.1 0.00 0.00 0.00 45 1019.9
20260905205904 75 182 6.1 7.0 0.00 0.00 0.00 45 1020.3
20260905205404 75 181 5.2 7.0 0.00 0.00 0.00 44 1019.9
20260905204904 75 181 5.2 7.0 0.00 0.00 0.00 44 1019.7
20260905204403 75 181 6.1 7.8 0.00 0.00 0.00 44 1019.6
20260905203906 75 181 5.2 7.8 0.00 0.00 0.00 44 1019.5
20260905203404 76 181 5.2 7.0 0.00 0.00 0.00 43 1019.6
20260905202905 76 182 6.1 7.0 0.00 0.00 0.00 43 1019.6
20260905202404 76 184 4.3 7.0 0.00 0.00 0.00 43 1019.5
20260905201905 76 182 5.2 6.1 0.00 0.00 0.00 43 1019.4
20260905201403 76 182 5.2 7.0 0.00 0.00 0.00 43 1019.4
20260905200905 76 180 6.1 7.0 0.00 0.00 0.00 42 1019.5
20260905200404 77 181 6.1 7.0 0.00 0.00 0.00 42 1019.4
20260905195905 77 182 5.2 7.0 0.00 0.00 0.00 42 1019.2
20260905195405 77 181 5.2 7.0 0.00 0.00 0.00 42 1019.2
20260905194904 77 181 5.2 7.0 0.00 0.00 0.00 41 1018.9
20260905194405 78 182 5.2 7.0 0.00 0.00 0.00 41 1018.7
20260905193903 78 180 5.2 7.0 0.00 0.00 0.00 41 1018.7
20260905193403 78 180 5.2 7.0 0.00 0.00 0.00 41 1018.7
20260905192906 78 181 4.3 7.0 0.00 0.00 0.00 41 1018.4
20260905192404 78 180 5.2 6.1 0.00 0.00 0.00 41 1018.6
20260905191906 79 182 5.2 7.8 0.00 0.00 0.00 41 1018.3
20260905191405 79 180 6.1 7.8 0.00 0.00 0.00 42 1018.5
20260905190906 79 180 4.3 7.0 0.00 0.00 0.00 43 1018.3
20260905190404 79 180 6.1 7.0 0.00 0.00 0.00 43 1018.3
20260905185904 79 180 5.2 6.1 0.00 0.00 0.00 43 1018.4
20260905185403 79 182 5.2 6.1 0.00 0.00 0.00 43 1018.1
20260905184905 79 177 5.2 7.8 0.00 0.00 0.00 43 1018.3
20260905184403 80 180 5.2 7.8 0.00 0.00 0.00 43 1018.0
20260905183904 80 183 7.8 7.8 0.00 0.00 0.00 43 1017.9
20260905183403 80 182 5.2 7.8 0.00 0.00 0.00 43 1018.0
20260905182905 80 181 5.2 7.0 0.00 0.00 0.00 43 1018.0
20260905182403 80 181 4.3 6.1 0.00 0.00 0.00 42 1017.8
20260905181904 80 181 5.2 7.0 0.00 0.00 0.00 42 1018.0
20260905181404 81 179 4.3 7.0 0.00 0.00 0.00 42 1017.6
20260905180903 81 180 5.2 7.0 0.00 0.00 0.00 42 1017.3
20260905180403 81 174 5.2 7.8 0.00 0.00 0.00 42 1017.4
20260905175903 81 180 3.5 7.8 0.00 0.00 0.00 41 1017.4
20260905175404 82 182 3.5 7.0 0.00 0.00 0.00 41 1017.3
20260905174905 82 181 4.3 7.8 0.00 0.00 0.00 42 1017.1
20260905174404 82 179 6.1 7.8 0.00 0.00 0.00 42 1016.9
20260905173904 82 180 4.3 6.1 0.00 0.00 0.00 42 1017.1
20260905173404 83 180 4.3 7.8 0.00 0.00 0.00 41 1016.7
20260905172904 83 176 5.2 7.8 0.00 0.00 0.00 41 1016.7
20260905172403 83 178 5.2 7.0 0.00 0.00 0.00 41 1016.7
20260905171904 84 180 5.2 7.8 0.00 0.00 0.00 40 1016.7
20260905171404 84 180 4.3 7.8 0.00 0.00 0.00 40 1016.4
20260905170905 84 181 4.3 7.0 0.00 0.00 0.00 39 1016.3
20260905170403 85 181 5.2 7.0 0.00 0.00 0.00 39 1016.2
20260905165903 85 183 5.2 7.0 0.00 0.00 0.00 39 1016.2
20260905165404 85 179 5.2 7.0 0.00 0.00 0.00 39 1016.0
20260905164903 85 180 5.2 7.0 0.00 0.00 0.00 39 1015.9
20260905164404 85 180 5.2 7.0 0.00 0.00 0.00 39 1016.0
20260905163904 85 180 4.3 6.1 0.00 0.00 0.00 39 1015.8
20260905163411 86 180 4.3 7.0 0.00 0.00 0.00 39 1015.9
20260905162903 86 180 4.3 7.8 0.00 0.00 0.00 39 1015.6
20260905162405 86 180 4.3 7.8 0.00 0.00 0.00 39 1015.7
20260905161904 87 181 5.2 7.0 0.00 0.00 0.00 39 1015.6
20260905161404 87 169 4.3 8.7 0.00 0.00 0.00 40 1015.4
20260905160904 88 177 4.3 8.7 0.00 0.00 0.00 40 1015.4
20260905160405 88 176 4.3 7.8 0.00 0.00 0.00 41 1015.1
20260905155903 88 178 4.3 7.8 0.00 0.00 0.00 42 1015.2
20260905155406 87 179 5.2 7.8 0.00 0.00 0.00 42 1015.2
20260905154903 87 180 5.2 7.8 0.00 0.00 0.00 43 1015.0
20260905154411 87 177 4.3 6.1 0.00 0.00 0.00 43 1015.1
20260905153907 88 180 4.3 7.0 0.00 0.00 0.00 43 1015.0
20260905153409 88 180 3.5 7.0 0.00 0.00 0.00 42 1014.8
20260905152908 88 181 4.3 6.1 0.00 0.00 0.00 42 1014.8
20260905152409 89 170 3.5 6.1 0.00 0.00 0.00 42 1014.7
20260905151906 89 172 4.3 6.1 0.00 0.00 0.00 42 1014.7
20260905151410 90 174 4.3 6.1 0.00 0.00 0.00 42 1014.7
20260905150907 90 182 3.5 7.0 0.00 0.00 0.00 42 1014.6
20260905150409 90 191 2.6 7.8 0.00 0.00 0.00 42 1014.8
20260905145903 91 181 3.5 7.8 0.00 0.00 0.00 42 1014.4
20260905145409 92 179 5.2 7.8 0.00 0.00 0.00 42 1014.3
20260905144903 93 179 3.5 6.1 0.00 0.00 0.00 39 1014.3
20260905144406 93 172 4.3 7.8 0.00 0.00 0.00 39 1014.1
20260905144135 93 171 3.5 7.8 0.00 0.00 0.00 39 1014.2
20260905143404 93 180 4.3 6.1 0.00 0.00 0.00 39 1014.1
20260905142903 93 175 4.3 6.1 0.00 0.00 0.00 39 1014.2
20260905142405 93 173 3.5 6.1 0.00 0.00 0.00 39 1014.2
20260905141904 94 177 4.3 6.1 0.00 0.00 0.00 39 1014.0
20260905141405 94 177 3.5 6.1 0.00 0.00 0.00 38 1013.9
20260905140903 94 177 5.2 8.7 0.00 0.00 0.00 38 1013.9
20260905140407 94 166 3.5 8.7 0.00 0.00 0.00 38 1013.9
20260905135904 94 177 3.5 6.1 0.00 0.00 0.00 38 1014.1
20260905135403 95 176 4.3 7.0 0.00 0.00 0.00 38 1014.0
20260905134905 95 178 4.3 7.0 0.00 0.00 0.00 38 1014.2
20260905134404 95 19 2.6 5.2 0.00 0.00 0.00 37 1014.0
20260905133904 96 6 1.7 3.5 0.00 0.00 0.00 37 1014.2
20260905133403 95 24 1.7 4.3 0.00 0.00 0.00 37 1014.0
20260905132904 95 18 1.7 4.3 0.00 0.00 0.00 37 1013.8
20260905132404 96 13 2.6 3.5 0.00 0.00 0.00 36 1013.9
20260905131903 97 17 0.9 4.3 0.00 0.00 0.00 35 1013.8
20260905131403 97 24 1.7 4.3 0.00 0.00 0.00 35 1013.8
20260905130904 98 44 0.0 4.3 0.00 0.00 0.00 33 1013.9
20260905130403 96 89 1.7 4.3 0.00 0.00 0.00 34 1013.8
20260905125902 97 37 0.0 4.3 0.00 0.00 0.00 34 1013.8
20260905125405 99 22 0.0 4.3 0.00 0.00 0.00 34 1014.1
20260905124902 99 167 0.0 2.6 0.00 0.00 0.00 32 1014.0
20260905124405 99 27 0.0 3.5 0.00 0.00 0.00 33 1014.1
20260905123903 98 25 0.9 3.5 0.00 0.00 0.00 33 1014.0
20260905123404 99 63 1.7 2.6 0.00 0.00 0.00 33 1014.0
20260905122904 98 34 0.0 2.6 0.00 0.00 0.00 34 1014.2
20260905122405 97 195 0.0 3.5 0.00 0.00 0.00 35 1014.4
20260905121903 97 73 0.0 3.5 0.00 0.00 0.00 35 1014.2
20260905121404 98 44 0.0 2.6 0.00 0.00 0.00 35 1014.4
20260905120904 98 18 1.7 2.6 0.00 0.00 0.00 35 1014.3
20260905120403 97 193 1.7 2.6 0.00 0.00 0.00 35 1014.4
20260905115901 98 21 1.7 2.6 0.00 0.00 0.00 35 1014.6
20260905115402 97 28 0.9 2.6 0.00 0.00 0.00 35 1014.5
20260905114901 97 97 0.0 3.5 0.00 0.00 0.00 34 1014.5
20260905114404 97 178 0.9 6.1 0.00 0.00 0.00 33 1014.6
20260905113901 97 11 0.0 8.7 0.00 0.00 0.00 32 1014.6
20260905113402 96 174 5.2 8.7 0.00 0.00 0.00 33 1014.5
20260905112903 97 177 5.2 8.7 0.00 0.00 0.00 33 1014.6
20260905112402 96 182 7.8 9.6 0.00 0.00 0.00 33 1014.9
20260905111901 96 178 5.2 9.6 0.00 0.00 0.00 35 1014.5
20260905111402 95 185 7.8 8.7 0.00 0.00 0.00 34 1014.8
20260905110901 94 177 5.2 7.8 0.00 0.00 0.00 35 1014.7
20260905110404 94 178 7.0 7.8 0.00 0.00 0.00 36 1015.0
20260905105859 93 177 5.2 7.8 0.00 0.00 0.00 36 1015.0
20260905105400 93 180 7.8 7.8 0.00 0.00 0.00 36 1015.1
20260905104901 92 179 6.1 7.0 0.00 0.00 0.00 37 1015.2
20260905104359 92 179 6.1 7.0 0.00 0.00 0.00 37 1015.0
20260905103857 92 174 5.2 7.0 0.00 0.00 0.00 37 1015.2
20260905103359 92 178 5.2 6.1 0.00 0.00 0.00 37 1015.1
20260905102858 92 175 4.3 7.8 0.00 0.00 0.00 37 1015.3
20260905102401 92 175 5.2 7.8 0.00 0.00 0.00 38 1015.0
20260905101859 91 178 5.2 7.8 0.00 0.00 0.00 38 1015.3
20260905101359 91 178 4.3 7.8 0.00 0.00 0.00 38 1015.2
20260905100912 92 176 4.3 7.8 0.00 0.00 0.00 38 1015.4
20260905100411 92 177 5.2 6.1 0.00 0.00 0.00 37 1015.3
20260905095859 91 179 5.2 8.7 0.00 0.00 0.00 38 1015.5
20260905095413 91 177 5.2 8.7 0.00 0.00 0.00 38 1015.6
20260905094912 91 181 7.0 7.8 0.00 0.00 0.00 38 1015.4
20260905094414 91 178 5.2 7.8 0.00 0.00 0.00 38 1015.5
20260905093912 90 178 5.2 7.8 0.00 0.00 0.00 39 1015.5
20260905093401 90 180 5.2 7.8 0.00 0.00 0.00 39 1015.5
20260905092900 90 180 6.1 7.8 0.00 0.00 0.00 40 1015.4
20260905092401 90 178 5.2 8.7 0.00 0.00 0.00 39 1015.2
20260905091859 89 182 7.8 8.7 0.00 0.00 0.00 39 1015.2
20260905091401 89 182 7.8 8.7 0.00 0.00 0.00 40 1015.3
20260905090859 89 181 7.8 8.7 0.00 0.00 0.00 40 1015.1
20260905090402 89 180 6.1 7.8 0.00 0.00 0.00 40 1015.3
20260905085855 88 180 5.2 7.8 0.00 0.00 0.00 42 1015.3
20260905085355 88 175 5.2 7.8 0.00 0.00 0.00 41 1015.6
20260905084856 88 180 6.1 7.8 0.00 0.00 0.00 42 1015.9
20260905084357 87 180 6.1 7.8 0.00 0.00 0.00 42 1015.8
20260905083856 87 181 7.0 7.8 0.00 0.00 0.00 43 1015.6
20260905083355 86 178 5.2 7.8 0.00 0.00 0.00 43 1015.5
20260905082857 86 179 6.1 7.8 0.00 0.00 0.00 44 1015.7
20260905082355 85 180 5.2 7.8 0.00 0.00 0.00 45 1015.7
20260905081856 85 180 5.2 7.8 0.00 0.00 0.00 46 1015.5
20260905081354 85 180 5.2 7.8 0.00 0.00 0.00 46 1015.4
20260905080856 84 180 6.1 7.8 0.00 0.00 0.00 48 1015.4
20260905080354 83 180 6.1 7.8 0.00 0.00 0.00 48 1015.5
20260905075846 83 180 7.0 8.7 0.00 0.00 0.00 49 1015.5
20260905075347 82 179 7.0 8.7 0.00 0.00 0.00 49 1015.4
20260905074849 81 180 6.1 7.0 0.00 0.00 0.00 53 1015.4
20260905074346 81 179 6.1 7.8 0.00 0.00 0.00 53 1015.5
20260905073846 80 181 5.2 7.8 0.00 0.00 0.00 53 1015.2
20260905073345 80 181 6.1 7.8 0.00 0.00 0.00 54 1015.4
20260905072847 79 180 6.1 7.0 0.00 0.00 0.00 54 1015.3
20260905072347 78 183 6.1 7.0 0.00 0.00 0.00 55 1015.1
20260905071847 78 180 6.1 7.8 0.00 0.00 0.00 56 1015.1
20260905071345 77 180 5.2 7.8 0.00 0.00 0.00 57 1015.1
20260905070847 76 180 5.2 6.1 0.00 0.00 0.00 58 1015.1
20260905070347 76 182 6.1 8.7 0.00 0.00 0.00 58 1015.1
20260905065837 75 181 5.2 8.7 0.00 0.00 0.00 59 1015.0
20260905065336 74 181 6.1 7.0 0.00 0.00 0.00 59 1015.1
20260905064838 74 181 6.1 7.8 0.00 0.00 0.00 60 1014.9
20260905064337 73 181 6.1 7.8 0.00 0.00 0.00 60 1014.7
20260905063837 73 181 6.1 7.0 0.00 0.00 0.00 61 1014.8
20260905063336 72 177 6.1 7.0 0.00 0.00 0.00 61 1015.0
20260905062837 72 189 5.2 7.0 0.00 0.00 0.00 62 1014.8
20260905062338 71 183 5.2 7.0 0.00 0.00 0.00 63 1014.8
20260905061837 70 176 5.2 7.0 0.00 0.00 0.00 64 1014.6
20260905061337 70 189 2.6 7.0 0.00 0.00 0.00 64 1014.9
20260905060835 69 201 4.3 7.8 0.00 0.00 0.00 65 1014.8
20260905060336 69 178 5.2 7.8 0.00 0.00 0.00 65 1015.0
20260905055827 68 179 6.1 7.8 0.00 0.00 0.00 65 1014.9
20260905055327 68 194 7.8 8.7 0.00 0.00 0.00 66 1014.8
20260905054827 67 181 7.0 9.6 0.00 0.00 0.00 66 1014.8
20260905054325 67 181 7.8 9.6 0.00 0.00 0.00 67 1014.8
20260905053828 66 181 7.8 8.7 0.00 0.00 0.00 68 1014.9
20260905053325 66 184 7.8 9.6 0.00 0.00 0.00 69 1014.6
20260905052828 65 182 7.8 9.6 0.00 0.00 0.00 69 1014.9
20260905052323 65 183 7.8 8.7 0.00 0.00 0.00 69 1014.8
20260905051824 65 184 7.0 7.8 0.00 0.00 0.00 69 1014.8
20260905051325 65 192 7.0 7.8 0.00 0.00 0.00 69 1014.8
20260905050824 65 185 7.0 8.7 0.00 0.00 0.00 70 1014.8
20260905050323 64 174 6.1 8.7 0.00 0.00 0.00 70 1014.9
20260905045824 64 198 5.2 7.0 0.00 0.00 0.00 71 1014.8
20260905045323 65 188 2.6 7.0 0.00 0.00 0.00 71 1014.8
20260905044824 65 186 3.5 7.0 0.00 0.00 0.00 71 1014.8
20260905044324 65 183 5.2 7.0 0.00 0.00 0.00 71 1014.6
20260905043824 65 184 5.2 7.0 0.00 0.00 0.00 72 1014.8
20260905043324 65 187 6.1 7.0 0.00 0.00 0.00 72 1014.7
20260905042823 65 182 6.1 7.0 0.00 0.00 0.00 73 1014.6
20260905042325 65 184 6.1 7.0 0.00 0.00 0.00 72 1014.6
20260905041823 66 184 7.0 7.0 0.00 0.00 0.00 72 1014.5
20260905041324 66 184 7.0 7.0 0.00 0.00 0.00 72 1014.5
20260905040825 66 184 6.1 7.8 0.00 0.00 0.00 72 1014.4
20260905040324 66 184 7.0 7.8 0.00 0.00 0.00 72 1014.3
20260905035814 66 183 6.1 7.0 0.00 0.00 0.00 71 1014.4
20260905035313 66 184 6.1 7.0 0.00 0.00 0.00 71 1014.4
20260905034814 66 183 6.1 7.0 0.00 0.00 0.00 71 1014.5
20260905034314 66 183 6.1 7.0 0.00 0.00 0.00 70 1014.5
20260905033813 66 181 6.1 7.0 0.00 0.00 0.00 70 1014.5
20260905033316 66 182 6.1 7.0 0.00 0.00 0.00 70 1014.5
20260905032813 66 184 6.1 7.0 0.00 0.00 0.00 70 1014.6
20260905032314 66 182 5.2 7.0 0.00 0.00 0.00 70 1014.7
20260905031813 67 182 6.1 7.0 0.00 0.00 0.00 70 1014.6
20260905031315 67 183 6.1 6.1 0.00 0.00 0.00 70 1014.6
20260905030815 67 180 6.1 6.1 0.00 0.00 0.00 70 1014.6
20260905030307 67 183 6.1 7.0 0.00 0.00 0.00 70 1014.6
20260905025807 67 182 6.1 7.0 0.00 0.00 0.00 70 1014.8
20260905025306 67 182 6.1 6.1 0.00 0.00 0.00 70 1014.7
20260905024806 67 183 5.2 6.1 0.00 0.00 0.00 70 1014.7
20260905024307 67 185 6.1 6.1 0.00 0.00 0.00 70 1014.6